Tracking 20721 objects as of 2-Jun-2020
HD Live streaming from Space Station
objects crossing your sky now

METEOR 2-17 DEB

Track METEOR 2-17 DEB now!
10-day predictions


NORAD ID: 28993
Int'l Code: 1988-005H
Perigee: 921.5 km
Apogee: 939.2 km
Inclination: 82.5 °
Period: 103.5 minutes
Semi major axis: 7301 km
RCS: 0.0011 m2 (small)
Launch date: January 30, 1988
Source: Commonwealth of Independent States (former USSR) (CIS)
Launch site: PLESETSK MISSILE AND SPACE COMPLEX (PKMTR)

Note: This is SATELLITE DEBRIS
aabbcc
Your satellite tracking list
Your tracking list is empty




NASA's NSSDC Master Catalog

Two Line Element Set (TLE):
1 28993U 88005H   20150.01897653 +.00000368 +00000-0 +27885-3 0  9999
2 28993 082.5285 258.5406 0012126 179.5536 180.5641 13.91543244282273
Source of the keplerian elements: AFSPC